| time (UTC) | temp F | wind direction | speed MPH | gust MPH | rain 1hr in | rain 24hr in | rain mn in | humidity % | barometer mb |
| 20260506215007 | 81 | 360 | 4.0 | 13.0 | 0.00 | 0.00 | 0.00 | 67 | 1006.1 |
| 20260506214509 | 83 | 326 | 5.0 | 12.0 | 0.00 | 0.00 | 0.00 | 67 | 1006.2 |
| 20260506214007 | 83 | 342 | 5.0 | 10.0 | 0.00 | 0.00 | 0.00 | 68 | 1006.1 |
| 20260506213506 | 83 | 86 | 5.0 | 11.0 | 0.00 | 0.00 | 0.00 | 68 | 1006.0 |
| 20260506213008 | 84 | 117 | 6.0 | 11.0 | 0.00 | 0.00 | 0.00 | 68 | 1005.9 |
| 20260506212506 | 84 | 138 | 5.0 | 11.0 | 0.00 | 0.00 | 0.00 | 68 | 1005.8 |
| 20260506212007 | 85 | 78 | 4.0 | 11.0 | 0.00 | 0.00 | 0.00 | 67 | 1005.9 |
| 20260506211509 | 85 | 82 | 4.0 | 9.0 | 0.00 | 0.00 | 0.00 | 66 | 1005.9 |
| 20260506211006 | 86 | 101 | 4.0 | 10.0 | 0.00 | 0.00 | 0.00 | 65 | 1005.9 |
| 20260506210508 | 86 | 96 | 5.0 | 10.0 | 0.00 | 0.00 | 0.00 | 65 | 1006.0 |
| 20260506210011 | 86 | 86 | 3.0 | 9.0 | 0.00 | 0.00 | 0.00 | 65 | 1006.1 |
| 20260506205505 | 86 | 26 | 4.0 | 9.0 | 0.00 | 0.00 | 0.00 | 64 | 1006.0 |
| 20260506205010 | 88 | 49 | 2.0 | 8.0 | 0.00 | 0.00 | 0.00 | 62 | 1005.9 |
| 20260506204506 | 86 | 67 | 0.0 | 10.0 | 0.00 | 0.00 | 0.00 | 66 | 1006.0 |
| 20260506204005 | 86 | 105 | 4.0 | 10.0 | 0.00 | 0.00 | 0.00 | 65 | 1006.2 |
| 20260506203504 | 86 | 117 | 2.0 | 8.0 | 0.00 | 0.00 | 0.00 | 65 | 1006.3 |
| 20260506203003 | 87 | 83 | 2.0 | 8.0 | 0.00 | 0.00 | 0.00 | 64 | 1006.3 |
| 20260506202506 | 87 | 24 | 0.0 | 5.0 | 0.00 | 0.00 | 0.00 | 63 | 1006.4 |
| 20260506202003 | 87 | 30 | 1.0 | 6.0 | 0.00 | 0.00 | 0.00 | 63 | 1006.5 |
| 20260506201502 | 87 | 30 | 0.0 | 5.0 | 0.00 | 0.00 | 0.00 | 64 | 1006.6 |
| 20260506201004 | 86 | 321 | 1.0 | 5.0 | 0.00 | 0.00 | 0.00 | 66 | 1006.5 |
| 20260506200501 | 85 | 42 | 2.0 | 5.0 | 0.00 | 0.00 | 0.00 | 66 | 1006.5 |
| 20260506200004 | 85 | 75 | 1.0 | 6.0 | 0.00 | 0.00 | 0.00 | 66 | 1006.4 |
| 20260506195501 | 86 | 70 | 3.0 | 6.0 | 0.00 | 0.00 | 0.00 | 65 | 1006.4 |
| 20260506195002 | 86 | 86 | 2.0 | 6.0 | 0.00 | 0.00 | 0.00 | 66 | 1006.5 |
| 20260506194503 | 87 | 17 | 1.0 | 4.0 | 0.00 | 0.00 | 0.00 | 65 | 1006.5 |
| 20260506194103 | 86 | 175 | 1.0 | 5.0 | 0.00 | 0.00 | 0.00 | 66 | 1006.5 |
| 20260506193558 | 86 | 28 | 3.0 | 5.0 | 0.00 | 0.00 | 0.00 | 65 | 1006.6 |
| 20260506193058 | 85 | 92 | 0.0 | 5.0 | 0.00 | 0.00 | 0.00 | 67 | 1006.5 |
| 20260506192557 | 84 | 173 | 2.0 | 6.0 | 0.00 | 0.00 | 0.00 | 68 | 1006.6 |
| 20260506192057 | 85 | 95 | 2.0 | 6.0 | 0.00 | 0.00 | 0.00 | 67 | 1006.8 |
| 20260506191557 | 85 | 94 | 1.0 | 5.0 | 0.00 | 0.00 | 0.00 | 66 | 1006.8 |
| 20260506191056 | 84 | 324 | 2.0 | 6.0 | 0.00 | 0.00 | 0.00 | 69 | 1006.7 |
| 20260506190557 | 84 | 83 | 3.0 | 6.0 | 0.00 | 0.00 | 0.00 | 68 | 1006.8 |
| 20260506190057 | 83 | 76 | 2.0 | 5.0 | 0.00 | 0.00 | 0.00 | 69 | 1006.9 |
| 20260506185556 | 84 | 151 | 1.0 | 6.0 | 0.00 | 0.00 | 0.00 | 71 | 1006.9 |
| 20260506185053 | 82 | 59 | 2.0 | 6.0 | 0.00 | 0.00 | 0.00 | 72 | 1006.9 |
| 20260506184556 | 82 | 22 | 1.0 | 5.0 | 0.00 | 0.00 | 0.00 | 73 | 1007.0 |
| 20260506184052 | 83 | 73 | 2.0 | 5.0 | 0.00 | 0.00 | 0.00 | 71 | 1007.1 |
| 20260506183552 | 83 | 221 | 0.0 | 6.0 | 0.00 | 0.00 | 0.00 | 72 | 1007.2 |
| 20260506183051 | 83 | 98 | 0.0 | 5.0 | 0.00 | 0.00 | 0.00 | 73 | 1007.2 |
| 20260506182549 | 81 | 53 | 2.0 | 5.0 | 0.00 | 0.00 | 0.00 | 75 | 1007.5 |
| 20260506182048 | 80 | 74 | 2.0 | 6.0 | 0.00 | 0.00 | 0.00 | 76 | 1007.6 |
| 20260506181547 | 80 | 51 | 2.0 | 6.0 | 0.00 | 0.00 | 0.00 | 76 | 1007.7 |
| 20260506181046 | 80 | 355 | 2.0 | 8.0 | 0.00 | 0.00 | 0.00 | 76 | 1007.7 |
| 20260506180546 | 80 | 35 | 2.0 | 8.0 | 0.00 | 0.00 | 0.00 | 77 | 1007.6 |
| 20260506180047 | 80 | 360 | 2.0 | 6.0 | 0.00 | 0.00 | 0.00 | 77 | 1007.6 |
| 20260506175547 | 79 | 39 | 2.0 | 4.0 | 0.00 | 0.00 | 0.00 | 77 | 1007.7 |
| 20260506175046 | 79 | 53 | 1.0 | 8.0 | 0.00 | 0.00 | 0.00 | 77 | 1007.7 |
| 20260506174548 | 79 | 24 | 3.0 | 8.0 | 0.00 | 0.00 | 0.00 | 77 | 1007.8 |
| 20260506174045 | 79 | 40 | 3.0 | 6.0 | 0.00 | 0.00 | 0.00 | 77 | 1007.8 |
| 20260506173547 | 79 | 67 | 2.0 | 6.0 | 0.00 | 0.00 | 0.00 | 77 | 1007.9 |
| 20260506173056 | 79 | 36 | 3.0 | 9.0 | 0.00 | 0.00 | 0.00 | 76 | 1007.9 |
| 20260506172545 | 80 | 52 | 2.0 | 7.0 | 0.00 | 0.00 | 0.00 | 76 | 1007.9 |
| 20260506172046 | 80 | 74 | 3.0 | 8.0 | 0.00 | 0.00 | 0.00 | 75 | 1008.0 |
| 20260506171551 | 80 | 328 | 2.0 | 9.0 | 0.00 | 0.00 | 0.00 | 76 | 1008.0 |
| 20260506171046 | 80 | 42 | 4.0 | 9.0 | 0.00 | 0.00 | 0.00 | 76 | 1008.0 |
| 20260506170542 | 80 | 60 | 2.0 | 8.0 | 0.00 | 0.00 | 0.00 | 77 | 1008.0 |
| 20260506170042 | 79 | 80 | 3.0 | 8.0 | 0.00 | 0.00 | 0.00 | 77 | 1007.9 |
| 20260506165543 | 79 | 78 | 3.0 | 7.0 | 0.00 | 0.00 | 0.00 | 78 | 1008.0 |
| 20260506165040 | 79 | 95 | 1.0 | 6.0 | 0.00 | 0.00 | 0.00 | 79 | 1008.1 |
| 20260506164552 | 79 | 96 | 3.0 | 5.0 | 0.00 | 0.00 | 0.00 | 78 | 1008.0 |
| 20260506164038 | 79 | 58 | 2.0 | 5.0 | 0.00 | 0.00 | 0.00 | 80 | 1007.9 |
| 20260506163537 | 78 | 344 | 2.0 | 5.0 | 0.00 | 0.00 | 0.00 | 79 | 1008.0 |
| 20260506163038 | 78 | 19 | 2.0 | 5.0 | 0.00 | 0.00 | 0.00 | 80 | 1008.0 |
| 20260506162535 | 78 | 70 | 2.0 | 6.0 | 0.00 | 0.00 | 0.00 | 81 | 1008.0 |
| 20260506162034 | 78 | 336 | 2.0 | 6.0 | 0.00 | 0.00 | 0.00 | 81 | 1008.1 |
| 20260506161534 | 78 | 19 | 2.0 | 5.0 | 0.00 | 0.00 | 0.00 | 82 | 1008.1 |
| 20260506161032 | 77 | 333 | 1.0 | 6.0 | 0.00 | 0.00 | 0.00 | 83 | 1008.0 |
| 20260506160531 | 77 | 342 | 3.0 | 6.0 | 0.00 | 0.00 | 0.00 | 83 | 1008.0 |
| 20260506160030 | 77 | 30 | 1.0 | 5.0 | 0.00 | 0.00 | 0.00 | 83 | 1008.0 |
| 20260506155528 | 76 | 46 | 3.0 | 4.0 | 0.00 | 0.00 | 0.00 | 83 | 1007.9 |
| 20260506155027 | 76 | 12 | 1.0 | 3.0 | 0.00 | 0.00 | 0.00 | 84 | 1007.8 |
| 20260506154525 | 76 | 50 | 1.0 | 5.0 | 0.00 | 0.00 | 0.00 | 84 | 1007.7 |
| 20260506154024 | 76 | 66 | 2.0 | 5.0 | 0.00 | 0.00 | 0.00 | 84 | 1007.5 |
| 20260506153524 | 76 | 355 | 0.0 | 3.0 | 0.00 | 0.00 | 0.00 | 85 | 1007.6 |
| 20260506153022 | 76 | 355 | 0.0 | 3.0 | 0.00 | 0.00 | 0.00 | 85 | 1007.5 |
| 20260506152522 | 76 | 355 | 1.0 | 3.0 | 0.00 | 0.00 | 0.00 | 85 | 1007.5 |
| 20260506152022 | 76 | 61 | 1.0 | 3.0 | 0.00 | 0.00 | 0.00 | 85 | 1007.3 |
| 20260506151521 | 75 | 68 | 0.0 | 3.0 | 0.00 | 0.00 | 0.00 | 85 | 1007.2 |
| 20260506151019 | 75 | 88 | 1.0 | 3.0 | 0.00 | 0.00 | 0.00 | 85 | 1007.1 |
| 20260506150521 | 75 | 42 | 1.0 | 3.0 | 0.00 | 0.00 | 0.00 | 85 | 1007.2 |
| 20260506150018 | 75 | 42 | 0.0 | 3.0 | 0.00 | 0.00 | 0.00 | 85 | 1007.2 |
| 20260506145519 | 75 | 82 | 1.0 | 3.0 | 0.00 | 0.00 | 0.00 | 85 | 1007.2 |
| 20260506145018 | 75 | 30 | 0.0 | 3.0 | 0.00 | 0.00 | 0.00 | 85 | 1007.1 |
| 20260506144517 | 75 | 32 | 1.0 | 3.0 | 0.00 | 0.00 | 0.00 | 85 | 1007.0 |
| 20260506144015 | 75 | 86 | 1.0 | 3.0 | 0.00 | 0.00 | 0.00 | 85 | 1006.9 |
| 20260506143515 | 75 | 86 | 0.0 | 4.0 | 0.00 | 0.00 | 0.00 | 85 | 1006.8 |
| 20260506143015 | 75 | 86 | 1.0 | 4.0 | 0.00 | 0.00 | 0.00 | 85 | 1006.7 |
| 20260506142514 | 75 | 86 | 0.0 | 3.0 | 0.00 | 0.00 | 0.00 | 85 | 1006.6 |
| 20260506142013 | 75 | 69 | 1.0 | 3.0 | 0.00 | 0.00 | 0.00 | 85 | 1006.7 |
| 20260506141512 | 75 | 71 | 0.0 | 3.0 | 0.00 | 0.00 | 0.00 | 85 | 1006.5 |
| 20260506141014 | 75 | 115 | 0.0 | 3.0 | 0.00 | 0.00 | 0.00 | 85 | 1006.5 |
| 20260506140512 | 75 | 76 | 1.0 | 3.0 | 0.00 | 0.00 | 0.00 | 85 | 1006.4 |
| 20260506140011 | 75 | 190 | 0.0 | 5.0 | 0.00 | 0.00 | 0.00 | 85 | 1006.4 |
| 20260506135510 | 75 | 65 | 0.0 | 4.0 | 0.00 | 0.00 | 0.00 | 85 | 1006.2 |
| 20260506135008 | 75 | 61 | 0.0 | 3.0 | 0.00 | 0.00 | 0.00 | 85 | 1006.1 |
| 20260506134508 | 75 | 167 | 0.0 | 4.0 | 0.00 | 0.00 | 0.00 | 85 | 1006.0 |
| 20260506134007 | 75 | 126 | 0.0 | 5.0 | 0.00 | 0.00 | 0.00 | 85 | 1005.9 |
| 20260506133507 | 75 | 69 | 0.0 | 5.0 | 0.00 | 0.00 | 0.00 | 85 | 1005.8 |
| 20260506133008 | 75 | 65 | 1.0 | 6.0 | 0.00 | 0.00 | 0.00 | 85 | 1005.9 |
| 20260506132506 | 75 | 100 | 1.0 | 6.0 | 0.00 | 0.00 | 0.00 | 85 | 1005.8 |
| 20260506132010 | 75 | 98 | 1.0 | 6.0 | 0.00 | 0.00 | 0.00 | 85 | 1005.7 |
| 20260506131505 | 75 | 71 | 0.0 | 4.0 | 0.00 | 0.00 | 0.00 | 85 | 1005.8 |
| 20260506131005 | 75 | 98 | 0.0 | 4.0 | 0.00 | 0.00 | 0.00 | 85 | 1005.7 |
| 20260506130505 | 75 | 79 | 1.0 | 4.0 | 0.00 | 0.00 | 0.00 | 85 | 1005.7 |
| 20260506130012 | 75 | 65 | 0.0 | 4.0 | 0.00 | 0.00 | 0.00 | 85 | 1005.7 |
| 20260506125504 | 75 | 63 | 0.0 | 4.0 | 0.00 | 0.00 | 0.00 | 85 | 1005.7 |
| 20260506125004 | 75 | 82 | 0.0 | 4.0 | 0.00 | 0.00 | 0.00 | 85 | 1005.7 |
| 20260506124503 | 74 | 57 | 0.0 | 2.0 | 0.00 | 0.00 | 0.00 | 85 | 1005.8 |
| 20260506124002 | 74 | 57 | 0.0 | 3.0 | 0.00 | 0.00 | 0.00 | 85 | 1005.8 |
| 20260506123503 | 74 | 34 | 0.0 | 3.0 | 0.00 | 0.00 | 0.00 | 85 | 1005.9 |
| 20260506123002 | 74 | 152 | 0.0 | 2.0 | 0.00 | 0.00 | 0.00 | 85 | 1005.8 |
| 20260506122502 | 74 | 152 | 0.0 | 3.0 | 0.00 | 0.00 | 0.00 | 85 | 1005.8 |
| 20260506122059 | 74 | 77 | 0.0 | 3.0 | 0.00 | 0.00 | 0.00 | 85 | 1005.7 |
| 20260506121613 | 74 | 77 | 0.0 | 2.0 | 0.00 | 0.00 | 0.00 | 85 | 1005.6 |
| 20260506121059 | 74 | 77 | 0.0 | 2.0 | 0.00 | 0.00 | 0.00 | 85 | 1005.6 |
| 20260506120558 | 74 | 77 | 0.0 | 2.0 | 0.00 | 0.00 | 0.00 | 85 | 1005.5 |
| 20260506120119 | 74 | 77 | 0.0 | 3.0 | 0.00 | 0.00 | 0.00 | 85 | 1005.6 |
| 20260506115557 | 74 | 77 | 0.0 | 3.0 | 0.00 | 0.00 | 0.00 | 85 | 1005.5 |
| 20260506115057 | 74 | 134 | 0.0 | 4.0 | 0.00 | 0.00 | 0.00 | 85 | 1005.6 |
| 20260506114557 | 74 | 69 | 1.0 | 4.0 | 0.00 | 0.00 | 0.00 | 84 | 1005.5 |
| 20260506114055 | 74 | 60 | 0.0 | 2.0 | 0.00 | 0.00 | 0.00 | 84 | 1005.5 |
| 20260506113555 | 74 | 60 | 0.0 | 2.0 | 0.00 | 0.00 | 0.00 | 84 | 1005.5 |
| 20260506113103 | 74 | 190 | 0.0 | 2.0 | 0.00 | 0.00 | 0.00 | 84 | 1005.5 |
| 20260506112555 | 74 | 190 | 0.0 | 2.0 | 0.00 | 0.00 | 0.00 | 84 | 1005.5 |
| 20260506112054 | 74 | 190 | 0.0 | 2.0 | 0.00 | 0.00 | 0.00 | 84 | 1005.5 |
| 20260506111555 | 74 | 190 | 0.0 | 2.0 | 0.00 | 0.00 | 0.00 | 84 | 1005.5 |
| 20260506111054 | 74 | 190 | 0.0 | 0.0 | 0.00 | 0.00 | 0.00 | 84 | 1005.5 |
| 20260506110556 | 74 | 190 | 0.0 | 1.0 | 0.00 | 0.00 | 0.00 | 84 | 1005.5 |
| 20260506110055 | 74 | 190 | 0.0 | 1.0 | 0.00 | 0.00 | 0.00 | 84 | 1005.5 |
| 20260506105554 | 74 | 190 | 0.0 | 0.0 | 0.00 | 0.00 | 0.00 | 84 | 1005.5 |
| 20260506105054 | 74 | 190 | 0.0 | 0.0 | 0.00 | 0.00 | 0.00 | 84 | 1005.3 |
| 20260506104554 | 75 | 190 | 0.0 | 2.0 | 0.00 | 0.00 | 0.00 | 84 | 1005.3 |
| 20260506104052 | 75 | 190 | 0.0 | 3.0 | 0.00 | 0.00 | 0.00 | 83 | 1005.2 |
| 20260506103552 | 75 | 190 | 0.0 | 2.0 | 0.00 | 0.00 | 0.00 | 83 | 1005.3 |
| 20260506103054 | 75 | 190 | 0.0 | 3.0 | 0.00 | 0.00 | 0.00 | 83 | 1005.3 |
| 20260506102552 | 75 | 190 | 1.0 | 3.0 | 0.00 | 0.00 | 0.00 | 83 | 1005.3 |
| 20260506102054 | 75 | 190 | 0.0 | 3.0 | 0.00 | 0.00 | 0.00 | 83 | 1005.3 |
| 20260506101552 | 75 | 190 | 0.0 | 3.0 | 0.00 | 0.00 | 0.00 | 83 | 1005.2 |
| 20260506101050 | 75 | 190 | 1.0 | 5.0 | 0.00 | 0.00 | 0.00 | 83 | 1005.3 |
| 20260506100550 | 75 | 155 | 2.0 | 5.0 | 0.00 | 0.00 | 0.00 | 83 | 1005.2 |
| 20260506100050 | 75 | 173 | 1.0 | 6.0 | 0.00 | 0.00 | 0.00 | 83 | 1005.1 |
| 20260506095550 | 75 | 176 | 2.0 | 9.0 | 0.00 | 0.00 | 0.00 | 83 | 1005.1 |
| 20260506095051 | 75 | 150 | 1.0 | 9.0 | 0.00 | 0.00 | 0.00 | 82 | 1005.3 |
| 20260506094550 | 75 | 137 | 2.0 | 5.0 | 0.00 | 0.00 | 0.00 | 82 | 1005.2 |
| 20260506094048 | 75 | 154 | 1.0 | 7.0 | 0.00 | 0.00 | 0.00 | 82 | 1005.2 |
| 20260506093548 | 75 | 108 | 3.0 | 7.0 | 0.00 | 0.00 | 0.00 | 82 | 1005.1 |
| 20260506093051 | 75 | 162 | 1.0 | 5.0 | 0.00 | 0.00 | 0.00 | 82 | 1005.1 |
| 20260506092548 | 75 | 122 | 0.0 | 8.0 | 0.00 | 0.00 | 0.00 | 82 | 1005.1 |
| 20260506092048 | 75 | 168 | 2.0 | 8.0 | 0.00 | 0.00 | 0.00 | 82 | 1005.0 |
| 20260506091548 | 75 | 154 | 3.0 | 8.0 | 0.00 | 0.00 | 0.00 | 82 | 1005.0 |
| 20260506091047 | 75 | 165 | 2.0 | 7.0 | 0.00 | 0.00 | 0.00 | 82 | 1005.0 |
| 20260506090546 | 75 | 185 | 4.0 | 8.0 | 0.00 | 0.00 | 0.00 | 82 | 1005.1 |
| 20260506090047 | 75 | 176 | 2.0 | 8.0 | 0.00 | 0.00 | 0.00 | 82 | 1005.2 |
| 20260506085546 | 76 | 164 | 3.0 | 9.0 | 0.00 | 0.00 | 0.00 | 82 | 1005.1 |
| 20260506085046 | 76 | 169 | 3.0 | 7.0 | 0.00 | 0.00 | 0.00 | 82 | 1005.1 |
| 20260506084545 | 76 | 187 | 3.0 | 9.0 | 0.00 | 0.00 | 0.00 | 81 | 1005.2 |
| 20260506084044 | 76 | 174 | 4.0 | 9.0 | 0.00 | 0.00 | 0.00 | 81 | 1005.2 |
| 20260506083544 | 76 | 179 | 4.0 | 8.0 | 0.00 | 0.00 | 0.00 | 81 | 1005.2 |
| 20260506083046 | 76 | 140 | 2.0 | 8.0 | 0.00 | 0.00 | 0.00 | 81 | 1005.3 |
| 20260506082545 | 76 | 184 | 4.0 | 8.0 | 0.00 | 0.00 | 0.00 | 81 | 1005.3 |
| 20260506082043 | 76 | 141 | 2.0 | 7.0 | 0.00 | 0.00 | 0.00 | 81 | 1005.3 |
| 20260506081548 | 76 | 155 | 3.0 | 9.0 | 0.00 | 0.00 | 0.00 | 81 | 1005.4 |
| 20260506081042 | 76 | 167 | 2.0 | 9.0 | 0.00 | 0.00 | 0.00 | 81 | 1005.4 |
| 20260506080545 | 76 | 172 | 1.0 | 9.0 | 0.00 | 0.00 | 0.00 | 81 | 1005.3 |
| 20260506073039 | 76 | 133 | 0.0 | 7.0 | 0.00 | 0.00 | 0.00 | 81 | 1005.6 |
| 20260506072538 | 76 | 161 | 1.0 | 7.0 | 0.00 | 0.00 | 0.00 | 81 | 1005.7 |
| 20260506072038 | 76 | 161 | 2.0 | 8.0 | 0.00 | 0.00 | 0.00 | 81 | 1005.9 |
| 20260506071548 | 76 | 190 | 2.0 | 8.0 | 0.00 | 0.00 | 0.00 | 81 | 1005.7 |
| 20260506071038 | 76 | 157 | 2.0 | 10.0 | 0.00 | 0.00 | 0.00 | 81 | 1005.7 |
| 20260506070538 | 76 | 172 | 4.0 | 10.0 | 0.00 | 0.00 | 0.00 | 81 | 1005.7 |
| 20260506062034 | 76 | 252 | 2.0 | 8.0 | 0.00 | 0.00 | 0.00 | 82 | 1005.7 |
| 20260506061536 | 76 | 151 | 2.0 | 5.0 | 0.00 | 0.00 | 0.00 | 82 | 1005.8 |
| 20260506061034 | 76 | 165 | 1.0 | 7.0 | 0.00 | 0.00 | 0.00 | 82 | 1005.9 |
| 20260506060534 | 76 | 166 | 3.0 | 7.0 | 0.00 | 0.00 | 0.00 | 82 | 1005.9 |
| 20260506051028 | 76 | 138 | 1.0 | 6.0 | 0.00 | 0.00 | 0.00 | 81 | 1005.7 |
| 20260506050527 | 76 | 179 | 2.0 | 9.0 | 0.00 | 0.00 | 0.00 | 81 | 1005.7 |
| 20260506045026 | 76 | 117 | 3.0 | 7.0 | 0.00 | 0.00 | 0.00 | 81 | 1005.8 |
| 20260506044535 | 76 | 136 | 3.0 | 6.0 | 0.00 | 0.00 | 0.00 | 81 | 1005.8 |
| 20260506044024 | 77 | 108 | 1.0 | 4.0 | 0.00 | 0.00 | 0.00 | 81 | 1005.8 |
| 20260506043527 | 77 | 108 | 2.0 | 7.0 | 0.00 | 0.00 | 0.00 | 81 | 1005.8 |
| 20260506043027 | 77 | 113 | 2.0 | 7.0 | 0.00 | 0.00 | 0.00 | 81 | 1005.7 |
| 20260506042524 | 77 | 144 | 2.0 | 8.0 | 0.00 | 0.00 | 0.00 | 81 | 1005.8 |
| 20260506042023 | 77 | 46 | 1.0 | 9.0 | 0.00 | 0.00 | 0.00 | 81 | 1005.7 |
| 20260506041525 | 77 | 126 | 2.0 | 9.0 | 0.00 | 0.00 | 0.00 | 80 | 1005.6 |
| 20260506041023 | 77 | 182 | 1.0 | 5.0 | 0.00 | 0.00 | 0.00 | 80 | 1005.5 |
| 20260506040523 | 77 | 135 | 2.0 | 9.0 | 0.00 | 0.00 | 0.00 | 80 | 1005.4 |
| 20260506040023 | 77 | 152 | 3.0 | 9.0 | 0.00 | 0.00 | 0.00 | 80 | 1005.4 |
| 20260506035523 | 77 | 157 | 1.0 | 6.0 | 0.00 | 0.00 | 0.00 | 80 | 1005.3 |
| 20260506035023 | 77 | 151 | 1.0 | 7.0 | 0.00 | 0.00 | 0.00 | 79 | 1005.1 |
| 20260506034523 | 78 | 128 | 2.0 | 10.0 | 0.00 | 0.00 | 0.00 | 79 | 1005.1 |
| 20260506034022 | 78 | 132 | 3.0 | 11.0 | 0.00 | 0.00 | 0.00 | 79 | 1005.0 |
| 20260506033522 | 78 | 170 | 4.0 | 11.0 | 0.00 | 0.00 | 0.00 | 79 | 1005.0 |
| 20260506033022 | 78 | 145 | 2.0 | 10.0 | 0.00 | 0.00 | 0.00 | 78 | 1005.0 |
| 20260506032522 | 78 | 155 | 2.0 | 10.0 | 0.00 | 0.00 | 0.00 | 78 | 1004.9 |
| 20260506032022 | 78 | 153 | 3.0 | 8.0 | 0.00 | 0.00 | 0.00 | 78 | 1004.9 |
| 20260506031524 | 78 | 169 | 1.0 | 4.0 | 0.00 | 0.00 | 0.00 | 78 | 1005.1 |
| 20260506031022 | 78 | 38 | 1.0 | 8.0 | 0.00 | 0.00 | 0.00 | 78 | 1004.9 |
| 20260506030521 | 78 | 157 | 3.0 | 11.0 | 0.00 | 0.00 | 0.00 | 77 | 1004.8 |
| 20260506030022 | 79 | 123 | 3.0 | 8.0 | 0.00 | 0.00 | 0.00 | 77 | 1004.7 |
| 20260506025525 | 79 | 94 | 1.0 | 12.0 | 0.00 | 0.00 | 0.00 | 77 | 1004.7 |
| 20260506025021 | 79 | 165 | 4.0 | 12.0 | 0.00 | 0.00 | 0.00 | 76 | 1004.5 |
| 20260506024530 | 80 | 135 | 2.0 | 6.0 | 0.00 | 0.00 | 0.00 | 76 | 1004.4 |
| 20260506024020 | 80 | 135 | 2.0 | 5.0 | 0.00 | 0.00 | 0.00 | 76 | 1004.4 |
| 20260506023520 | 80 | 97 | 0.0 | 5.0 | 0.00 | 0.00 | 0.00 | 76 | 1004.5 |
| 20260506023020 | 80 | 157 | 2.0 | 5.0 | 0.00 | 0.00 | 0.00 | 75 | 1004.4 |
| 20260506022520 | 80 | 132 | 1.0 | 5.0 | 0.00 | 0.00 | 0.00 | 75 | 1004.4 |
| 20260506022020 | 80 | 143 | 1.0 | 5.0 | 0.00 | 0.00 | 0.00 | 75 | 1004.3 |
| 20260506021520 | 80 | 105 | 0.0 | 10.0 | 0.00 | 0.00 | 0.00 | 75 | 1004.3 |
| 20260506021020 | 81 | 113 | 2.0 | 10.0 | 0.00 | 0.00 | 0.00 | 75 | 1004.0 |
| 20260506020523 | 81 | 85 | 1.0 | 10.0 | 0.00 | 0.00 | 0.00 | 74 | 1003.9 |
| 20260506020019 | 81 | 117 | 3.0 | 10.0 | 0.00 | 0.00 | 0.00 | 74 | 1003.8 |
| 20260506015521 | 81 | 126 | 2.0 | 12.0 | 0.00 | 0.00 | 0.00 | 73 | 1003.7 |
| 20260506015019 | 82 | 95 | 3.0 | 12.0 | 0.00 | 0.00 | 0.00 | 73 | 1003.8 |
| 20260506014519 | 82 | 119 | 2.0 | 10.0 | 0.00 | 0.00 | 0.00 | 72 | 1003.7 |
| 20260506014018 | 82 | 70 | 1.0 | 10.0 | 0.00 | 0.00 | 0.00 | 72 | 1003.7 |
| 20260506013518 | 82 | 46 | 2.0 | 10.0 | 0.00 | 0.00 | 0.00 | 71 | 1003.6 |
| 20260506013022 | 83 | 92 | 2.0 | 8.0 | 0.00 | 0.00 | 0.00 | 71 | 1003.5 |
| 20260506012518 | 83 | 88 | 1.0 | 6.0 | 0.00 | 0.00 | 0.00 | 70 | 1003.4 |
| 20260506012017 | 83 | 167 | 2.0 | 6.0 | 0.00 | 0.00 | 0.00 | 70 | 1003.4 |
| 20260506011517 | 83 | 88 | 1.0 | 10.0 | 0.00 | 0.00 | 0.00 | 69 | 1003.3 |
| 20260506011018 | 83 | 71 | 3.0 | 10.0 | 0.00 | 0.00 | 0.00 | 69 | 1003.2 |
| 20260506010516 | 84 | 81 | 3.0 | 7.0 | 0.00 | 0.00 | 0.00 | 68 | 1003.1 |
| 20260506010017 | 84 | 102 | 2.0 | 5.0 | 0.00 | 0.00 | 0.00 | 68 | 1003.0 |
| 20260506005516 | 84 | 106 | 1.0 | 6.0 | 0.00 | 0.00 | 0.00 | 68 | 1002.9 |
| 20260506005020 | 84 | 92 | 1.0 | 6.0 | 0.00 | 0.00 | 0.00 | 68 | 1002.9 |
| 20260506004516 | 84 | 115 | 1.0 | 4.0 | 0.00 | 0.00 | 0.00 | 68 | 1002.9 |
| 20260506004015 | 84 | 74 | 1.0 | 9.0 | 0.00 | 0.00 | 0.00 | 68 | 1002.9 |
| 20260506003515 | 84 | 159 | 3.0 | 9.0 | 0.00 | 0.00 | 0.00 | 67 | 1002.9 |
| 20260506003015 | 85 | 117 | 1.0 | 5.0 | 0.00 | 0.00 | 0.00 | 67 | 1002.9 |
| 20260506002514 | 85 | 161 | 0.0 | 6.0 | 0.00 | 0.00 | 0.00 | 67 | 1002.9 |
| 20260506002014 | 85 | 100 | 1.0 | 6.0 | 0.00 | 0.00 | 0.00 | 67 | 1002.9 |
| 20260506001516 | 85 | 88 | 2.0 | 6.0 | 0.00 | 0.00 | 0.00 | 67 | 1002.8 |
| 20260506001014 | 85 | 92 | 2.0 | 9.0 | 0.00 | 0.00 | 0.00 | 67 | 1002.8 |
| 20260506000514 | 85 | 112 | 2.0 | 9.0 | 0.00 | 0.00 | 0.00 | 66 | 1002.7 |
| 20260506000013 | 86 | 78 | 1.0 | 7.0 | 0.00 | 0.00 | 0.00 | 66 | 1002.7 |
| 20260505235513 | 86 | 59 | 2.0 | 10.0 | 0.00 | 0.00 | 0.00 | 65 | 1002.6 |
| 20260505235015 | 87 | 70 | 1.0 | 9.0 | 0.00 | 0.00 | 0.00 | 65 | 1002.6 |
| 20260505234527 | 86 | 355 | 2.0 | 9.0 | 0.00 | 0.00 | 0.00 | 65 | 1002.5 |
| 20260505234011 | 87 | 74 | 3.0 | 7.0 | 0.00 | 0.00 | 0.00 | 64 | 1002.5 |
| 20260505233511 | 87 | 71 | 0.0 | 4.0 | 0.00 | 0.00 | 0.00 | 64 | 1002.5 |
| 20260505233016 | 87 | 104 | 0.0 | 4.0 | 0.00 | 0.00 | 0.00 | 64 | 1002.6 |
| 20260505232512 | 87 | 97 | 1.0 | 4.0 | 0.00 | 0.00 | 0.00 | 64 | 1002.5 |
| 20260505232012 | 87 | 94 | 1.0 | 7.0 | 0.00 | 0.00 | 0.00 | 63 | 1002.5 |
| 20260505231514 | 87 | 106 | 2.0 | 7.0 | 0.00 | 0.00 | 0.00 | 63 | 1002.5 |
| 20260505231011 | 88 | 69 | 1.0 | 6.0 | 0.00 | 0.00 | 0.00 | 63 | 1002.5 |
| 20260505230513 | 88 | 101 | 2.0 | 5.0 | 0.00 | 0.00 | 0.00 | 63 | 1002.5 |
| 20260505230014 | 88 | 167 | 1.0 | 6.0 | 0.00 | 0.00 | 0.00 | 63 | 1002.5 |
| 20260505225511 | 88 | 138 | 2.0 | 7.0 | 0.00 | 0.00 | 0.00 | 63 | 1002.4 |
| 20260505225010 | 88 | 73 | 3.0 | 8.0 | 0.00 | 0.00 | 0.00 | 63 | 1002.4 |
| 20260505224510 | 87 | 157 | 4.0 | 8.0 | 0.00 | 0.00 | 0.00 | 62 | 1002.4 |
| 20260505224010 | 87 | 143 | 3.0 | 10.0 | 0.00 | 0.00 | 0.00 | 62 | 1002.5 |
| 20260505223508 | 87 | 186 | 4.0 | 10.0 | 0.00 | 0.00 | 0.00 | 62 | 1002.5 |
| 20260505223011 | 87 | 168 | 2.0 | 7.0 | 0.00 | 0.00 | 0.00 | 62 | 1002.6 |
| 20260505222507 | 87 | 175 | 2.0 | 9.0 | 0.00 | 0.00 | 0.00 | 63 | 1002.5 |
| 20260505222007 | 87 | 123 | 4.0 | 9.0 | 0.00 | 0.00 | 0.00 | 62 | 1002.7 |
| 20260505221507 | 87 | 149 | 4.0 | 8.0 | 0.00 | 0.00 | 0.00 | 63 | 1002.7 |
| 20260505221006 | 87 | 250 | 2.0 | 5.0 | 0.00 | 0.00 | 0.00 | 62 | 1002.9 |
| 20260505220505 | 87 | 140 | 2.0 | 6.0 | 0.00 | 0.00 | 0.00 | 63 | 1002.8 |
| 20260505220009 | 87 | 117 | 1.0 | 10.0 | 0.00 | 0.00 | 0.00 | 64 | 1002.9 |
| 20260505215505 | 87 | 105 | 3.0 | 10.0 | 0.00 | 0.00 | 0.00 | 63 | 1002.8 |